Wind_Speed
61 64 64 66 59 53 51 49 47 41 35 39 33 32 30 31 26 24 22 17 11 14 20 20 18 19 18 18 17 17 15 15 16 18 18 19 19 18 19 20 20 22 23 23
54 63 61 62 59 56 54 51 49 42 44 45 37 33 35 35 27 26 22 20 20 18 16 18 18 18 19 19 19 20 20 18 18 19 20 19 19 19 19 19 22 24 27 26
59 48 60 60 60 58 57 55 52 48 45 46 40 38 37 33 32 28 24 24 20 17 17 17 15 15 17 18 22 22 23 23 20 21 19 19 19 20 20 22 24 26 26 28
62 64 56 60 61 58 58 55 54 49 46 47 40 40 39 35 33 30 27 24 20 18 16 15 16 15 16 21 23 27 26 26 23 23 22 22 22 23 26 27 27 29 29 30
59 62 61 64 64 59 55 54 52 48 46 46 45 49 38 39 38 29 30 26 24 22 21 18 18 17 19 20 22 24 29 27 26 25 26 27 26 28 30 31 32 32 32 34
67 68 61 52 64 61 56 55 52 50 49 55 48 48 45 41 38 33 33 27 26 24 26 23 18 18 18 18 19 24 27 27 31 30 30 30 30 32 34 35 36 37 37 37
55 57 54 60 66 62 59 57 55 53 54 60 51 52 53 40 36 31 32 29 28 27 27 24 24 23 22 23 23 22 21 22 26 30 32 34 35 36 38 39 40 41 41 42
58 58 54 55 67 64 63 64 63 60 58 55 51 52 53 42 40 35 35 33 30 28 28 28 26 26 23 24 25 23 25 23 24 26 28 32 36 41 43 43 44 45 46 47
59 54 54 60 62 66 65 64 58 55 54 54 55 51 49 46 38 38 36 34 33 32 31 30 29 29 29 29 30 31 31 32 31 33 35 35 38 42 45 46 47 49 50 50
65 58 57 58 60 71 67 61 61 57 55 55 56 53 48 47 39 37 35 35 35 35 34 33 34 35 35 34 35 36 36 36 37 38 39 40 41 41 45 48 50 51 52 53
70 62 59 55 60 61 69 72 67 61 56 53 53 55 47 46 43 38 37 36 36 37 40 41 39 38 39 40 40 41 41 42 44 44 44 44 43 43 43 44 48 52 54 55
71 68 65 55 54 55 63 66 70 70 62 57 54 54 49 44 44 40 37 39 42 44 43 42 43 44 43 44 45 46 47 48 49 49 47 47 46 47 48 47 48 48 49 51
66 72 69 62 61 63 62 61 62 62 59 56 53 48 49 50 48 48 46 46 46 47 48 47 46 46 46 46 46 47 48 49 51 54 54 55 55 55 54 52 52 55 55 54
65 65 66 59 46 49 53 57 61 63 57 48 41 44 51 53 53 51 52 53 50 49 49 49 47 49 49 49 49 49 50 51 50 49 51 53 55 56 53 53 53 51 52 54
67 62 63 58 55 58 50 55 61 63 57 56 39 48 49 51 54 56 56 53 51 51 50 49 48 49 51 52 52 51 53 53 53 52 51 49 48 50 50 48 49 49 51 50
66 65 63 62 58 55 59 56 48 53 56 55 54 50 51 56 59 57 54 52 51 51 51 51 51 50 51 50 52 53 55 55 53 52 51 49 48 48 49 51 54 53 52 53
62 59 58 67 68 64 68 57 54 48 46 49 56 45 53 52 52 53 52 52 50 49 49 49 49 50 50 51 54 56 55 53 51 52 49 46 47 48 50 53 55 55 54 53
59 62 60 64 67 70 58 59 53 57 54 50 46 43 42 39 41 46 49 49 49 49 49 49 51 52 51 49 50 50 48 46 46 47 47 47 49 52 52 54 56 55 56 56
59 63 67 66 63 62 56 54 55 53 48 50 50 47 44 44 42 45 45 48 47 48 51 52 50 47 47 47 47 47 47 47 46 47 48 49 50 52 53 54 55 55 55 54
65 67 63 65 61 57 50 51 48 50 50 43 42 42 40 42 44 38 40 42 46 48 46 43 43 45 46 47 47 46 45 42 40 40 40 40 40 41 43 43 45 46 47 46
65 63 60 59 53 51 46 45 44 48 30 37 41 39 40 41 37 37 38 41 42 41 41 42 41 42 42 41 39 37 37 36 36 36 38 38 39 39 40 43 44 46 47 45
56 54 50 51 50 46 39 38 37 38 40 41 38 38 39 39 37 39 41 40 39 38 38 39 40 38 35 35 35 34 33 33 35 35 34 34 35 35 37 37 37 38 39 39
55 49 44 41 38 45 43 42 42 42 39 35 38 39 37 36 38 38 35 38 37 37 36 35 36 35 33 32 32 32 32 32 33 34 35 36 37 39 40 41 42 42 41 39
52 54 54 50 44 39 32 34 33 32 33 32 35 38 36 34 36 36 36 38 37 35 36 37 34 36 36 33 32 34 35 34 34 34 35 35 36 36 38 39 39 38 38 37
50 52 51 45 39 36 36 41 33 31 30 35 34 32 34 37 38 38 37 36 35 33 34 34 34 33 31 29 31 34 36 35 36 36 36 36 37 37 37 37 36 36 37 39
51 46 41 38 37 36 35 33 32 34 37 35 35 38 39 40 40 39 37 36 34 31 31 31 31 30 30 32 35 38 40 40 40 40 39 41 41 43 41 39 39 39 40 41
Wind_Direction
221 227 232 228 227 228 229 231 234 234 233 240 235 232 235 243 239 248 250 247 247 260 260 259 256 258 258 261 257 254 257 258 267 265 259 256 258 260 260 262 265 264 261 259
228 227 222 220 220 223 227 229 233 232 233 238 236 233 236 246 246 247 251 255 255 256 256 248 244 253 251 254 256 260 259 257 255 262 266 270 273 273 271 269 267 268 274 277
238 240 229 219 218 220 225 226 229 232 233 240 238 235 237 241 247 248 253 255 260 255 258 246 246 239 246 252 252 252 258 262 264 267 272 274 274 271 270 266 268 272 274 279
234 234 228 224 219 220 223 228 229 230 233 237 237 236 237 239 244 248 249 250 254 248 242 255 257 255 243 246 247 248 250 254 257 263 268 270 272 274 273 274 276 277 277 276
234 236 236 229 222 222 224 229 231 230 232 236 235 242 229 238 243 240 246 248 249 254 259 253 257 260 260 267 264 255 252 255 262 263 266 269 272 273 274 276 276 276 278 278
241 241 239 235 225 225 223 228 231 230 230 234 234 240 235 236 245 238 243 247 255 259 253 257 250 256 269 271 274 270 259 255 253 259 262 264 268 271 272 272 275 278 279 279
230 231 231 225 220 222 221 223 229 230 229 235 233 239 244 235 241 243 244 243 249 248 257 255 260 259 264 271 273 273 275 275 263 258 264 267 267 268 269 271 273 275 276 277
229 224 221 224 220 225 223 224 228 230 233 236 242 238 245 240 240 241 248 251 249 249 252 262 260 263 262 264 269 276 278 273 273 271 269 270 273 270 268 269 270 271 272 274
223 229 229 227 226 225 223 223 227 230 234 238 242 242 244 246 243 243 243 246 249 250 253 255 260 265 266 263 265 267 267 269 271 272 271 270 269 270 271 269 271 272 274 275
226 226 229 224 223 221 224 226 228 229 234 238 243 247 247 252 245 245 248 248 247 250 251 253 255 258 261 263 265 268 268 268 266 267 266 266 267 270 272 272 271 272 273 275
221 224 224 221 225 226 223 223 227 230 232 238 244 248 248 254 257 252 248 246 245 245 246 250 252 253 258 262 264 265 265 266 267 268 268 268 268 270 271 272 274 274 276 279
217 224 222 231 231 229 226 230 232 234 236 237 243 250 255 256 256 255 246 239 239 241 244 248 252 252 252 255 259 264 266 266 268 271 273 272 272 271 272 274 273 271 273 276
215 220 222 231 228 229 229 228 229 231 233 236 242 249 256 255 253 252 250 246 244 245 246 247 249 251 255 260 264 267 268 271 272 273 275 274 274 275 277 276 273 274 278 280
219 224 223 224 233 232 227 227 228 229 230 234 238 243 246 249 251 251 251 254 257 254 251 249 250 252 253 257 261 266 269 271 274 277 278 279 277 278 279 275 273 273 274 275
222 221 221 228 229 234 234 231 230 228 231 232 232 241 248 250 250 251 253 255 258 259 258 255 255 255 258 261 264 264 265 268 272 276 279 282 283 283 278 275 277 276 276 274
226 226 229 229 227 227 229 233 231 232 234 234 237 238 242 245 247 252 259 260 258 258 263 264 265 266 265 264 264 267 271 276 278 280 281 281 278 276 275 275 274 272 273 273
221 223 224 223 230 234 235 229 232 226 235 232 237 238 247 253 257 257 261 260 261 265 269 273 274 273 274 273 270 271 274 278 279 279 277 274 274 273 269 266 266 267 270 273
229 221 221 225 230 235 232 235 238 242 245 244 240 240 243 244 247 249 255 259 263 268 273 274 274 273 273 275 278 280 279 276 274 271 269 267 267 266 266 267 267 269 271 274
228 229 231 231 236 239 241 241 239 244 247 250 251 250 247 245 245 251 253 259 266 268 268 271 275 278 279 280 280 280 279 278 279 278 276 274 273 274 275 276 277 282 284 286
230 230 233 233 236 239 239 245 249 251 247 243 245 240 239 243 246 255 261 262 265 267 269 272 275 276 277 278 281 284 287 288 287 286 287 286 286 285 283 282 284 286 285 288
229 232 235 232 235 237 236 240 246 244 238 244 234 235 240 245 253 255 259 261 262 264 265 266 269 273 276 278 280 281 283 284 287 288 289 290 290 290 289 289 289 291 294 296
227 227 227 227 228 231 229 233 239 247 236 241 232 233 244 250 249 250 252 259 260 263 268 271 272 272 273 274 276 280 284 287 289 288 288 287 287 287 287 287 287 285 287 288
229 230 231 233 235 235 242 246 248 239 239 235 237 243 241 240 245 249 253 259 264 267 269 269 270 265 268 272 275 277 279 280 281 282 283 283 283 283 282 284 286 287 288 289
229 226 229 231 231 232 232 242 238 237 232 232 234 234 238 242 245 248 252 258 264 266 268 267 264 264 267 269 274 277 279 279 278 277 278 279 281 281 282 283 283 284 286 288
230 230 225 222 219 213 229 233 243 236 227 230 230 233 236 239 242 246 253 259 260 263 266 263 263 263 265 269 271 274 275 274 276 275 275 276 276 276 277 278 279 281 284 285
219 220 225 226 219 210 222 241 238 230 231 233 231 231 234 236 239 246 254 254 256 256 256 257 263 270 274 280 281 279 279 279 276 276 275 275 274 277 279 278 277 279 280 283
Height
5740 5748 5764 5775 5783 5791 5797 5800 5806 5814 5819 5819 5826 5830 5833 5834 5841 5844 5848 5849 5852 5851 5851 5854 5857 5860 5862 5865 5865 5865 5867 5868 5871 5871 5870 5869 5870 5872 5872 5873 5874 5873 5873 5873
5737 5743 5759 5763 5771 5780 5787 5794 5801 5808 5809 5812 5819 5825 5828 5828 5836 5838 5842 5843 5847 5847 5848 5848 5850 5854 5857 5858 5861 5862 5863 5864 5864 5867 5867 5867 5867 5868 5868 5868 5869 5869 5868 5869
5733 5750 5749 5756 5763 5771 5778 5785 5792 5798 5803 5806 5812 5816 5821 5826 5828 5832 5836 5838 5841 5842 5843 5844 5847 5848 5850 5853 5854 5856 5856 5857 5860 5862 5863 5864 5864 5864 5863 5863 5862 5863 5863 5862
5724 5727 5740 5750 5756 5763 5772 5779 5783 5789 5795 5797 5806 5810 5813 5819 5823 5826 5830 5832 5835 5836 5839 5840 5841 5843 5844 5845 5847 5848 5850 5851 5852 5854 5857 5858 5859 5860 5859 5858 5859 5858 5858 5857
5722 5724 5733 5737 5751 5757 5765 5771 5777 5784 5788 5790 5796 5798 5811 5810 5815 5823 5824 5827 5830 5830 5833 5836 5837 5836 5839 5840 5841 5842 5844 5846 5847 5849 5850 5851 5853 5853 5853 5852 5851 5851 5851 5850
5702 5713 5718 5735 5743 5748 5757 5763 5768 5774 5777 5776 5787 5793 5801 5805 5810 5816 5818 5822 5824 5827 5827 5829 5832 5832 5834 5834 5835 5836 5837 5839 5840 5840 5843 5844 5844 5846 5846 5845 5844 5843 5843 5843
5692 5699 5711 5720 5727 5735 5745 5754 5758 5762 5765 5770 5779 5781 5788 5801 5805 5808 5812 5815 5817 5818 5820 5824 5825 5827 5828 5828 5828 5829 5831 5832 5833 5834 5836 5836 5836 5835 5836 5836 5835 5834 5834 5833
5682 5690 5700 5710 5717 5731 5739 5744 5747 5751 5759 5767 5770 5774 5779 5793 5798 5802 5804 5806 5810 5813 5814 5816 5819 5820 5822 5822 5822 5823 5824 5825 5825 5826 5827 5827 5827 5827 5827 5826 5825 5824 5824 5822
5677 5686 5695 5702 5714 5723 5725 5729 5743 5747 5754 5757 5759 5768 5774 5781 5790 5793 5796 5799 5802 5805 5808 5809 5809 5811 5812 5813 5814 5816 5816 5817 5818 5818 5817 5817 5816 5816 5816 5816 5815 5815 5814 5813
5669 5678 5685 5692 5701 5705 5714 5732 5731 5736 5743 5748 5752 5757 5766 5772 5781 5785 5789 5791 5793 5795 5797 5799 5800 5801 5803 5804 5806 5806 5807 5809 5809 5808 5807 5807 5806 5806 5805 5804 5804 5804 5805 5803
5660 5671 5675 5681 5684 5699 5707 5707 5718 5728 5734 5740 5745 5750 5760 5764 5768 5777 5780 5783 5785 5786 5786 5788 5791 5793 5794 5795 5796 5797 5797 5798 5797 5797 5797 5797 5796 5795 5793 5793 5793 5791 5790 5789
5648 5657 5663 5675 5681 5690 5693 5704 5710 5715 5728 5732 5738 5743 5751 5758 5758 5763 5769 5771 5773 5775 5778 5779 5780 5782 5785 5787 5787 5787 5787 5787 5787 5787 5787 5787 5786 5784 5783 5782 5780 5777 5775 5774
5635 5642 5653 5660 5669 5676 5682 5693 5703 5711 5716 5723 5730 5741 5741 5744 5748 5751 5755 5759 5763 5765 5766 5768 5771 5774 5775 5776 5776 5777 5776 5776 5775 5774 5774 5773 5773 5772 5770 5769 5767 5765 5764 5762
5627 5634 5643 5654 5670 5676 5678 5683 5691 5695 5702 5712 5720 5729 5732 5735 5738 5740 5742 5744 5747 5751 5756 5760 5762 5764 5765 5766 5766 5766 5765 5765 5764 5763 5762 5761 5760 5758 5757 5755 5753 5750 5748 5746
5617 5628 5639 5648 5657 5662 5669 5674 5679 5684 5697 5700 5719 5716 5722 5726 5727 5729 5731 5734 5736 5739 5744 5748 5751 5752 5753 5754 5755 5755 5754 5753 5752 5750 5748 5747 5747 5745 5744 5742 5740 5737 5735 5732
5610 5620 5629 5636 5645 5651 5656 5664 5670 5679 5687 5696 5698 5706 5709 5709 5710 5717 5721 5724 5726 5729 5730 5733 5737 5740 5742 5743 5742 5742 5741 5739 5737 5736 5736 5735 5733 5732 5730 5728 5726 5723 5721 5719
5604 5611 5617 5627 5634 5638 5639 5655 5665 5676 5675 5688 5686 5701 5699 5703 5706 5708 5709 5711 5716 5719 5721 5724 5726 5727 5728 5729 5729 5728 5727 5726 5724 5722 5721 5720 5718 5717 5715 5713 5710 5709 5707 5704
5593 5600 5607 5615 5621 5623 5640 5646 5658 5664 5669 5676 5680 5683 5687 5691 5694 5697 5699 5704 5707 5708 5710 5711 5712 5712 5713 5712 5713 5713 5713 5712 5710 5709 5707 5705 5704 5702 5700 5699 5697 5694 5692 5689
5582 5588 5596 5604 5613 5621 5629 5637 5645 5650 5661 5665 5670 5673 5677 5679 5683 5686 5691 5694 5695 5697 5699 5699 5699 5700 5700 5700 5699 5699 5698 5697 5696 5694 5693 5692 5690 5689 5687 5686 5684 5681 5679 5676
5570 5578 5589 5598 5605 5613 5627 5629 5637 5638 5640 5651 5657 5661 5663 5667 5670 5679 5679 5680 5684 5685 5686 5687 5688 5687 5687 5686 5686 5685 5684 5683 5682 5681 5680 5680 5678 5677 5675 5673 5671 5669 5666 5663
5560 5567 5576 5588 5598 5605 5612 5619 5622 5625 5644 5639 5646 5652 5653 5656 5667 5667 5668 5670 5673 5675 5676 5676 5675 5675 5675 5674 5673 5673 5672 5671 5670 5669 5668 5667 5666 5664 5663 5661 5659 5658 5655 5652
5551 5559 5568 5580 5588 5596 5604 5607 5615 5626 5626 5629 5635 5639 5644 5651 5655 5658 5658 5660 5662 5663 5664 5664 5664 5664 5664 5663 5662 5661 5660 5659 5658 5658 5656 5655 5654 5652 5651 5649 5647 5645 5643 5640
5545 5556 5566 5575 5583 5585 5593 5602 5606 5611 5615 5619 5625 5632 5637 5640 5643 5646 5648 5649 5651 5652 5653 5652 5654 5654 5653 5652 5652 5651 5650 5649 5649 5648 5646 5644 5643 5641 5639 5637 5635 5633 5631 5629
5539 5548 5555 5564 5571 5579 5586 5592 5597 5602 5606 5612 5615 5620 5625 5629 5633 5635 5637 5639 5641 5641 5642 5642 5642 5643 5643 5642 5641 5640 5640 5639 5637 5636 5635 5633 5631 5630 5628 5626 5623 5621 5619 5617
5533 5537 5548 5556 5564 5571 5579 5586 5590 5593 5595 5600 5606 5612 5616 5618 5622 5624 5626 5628 5629 5631 5632 5632 5633 5634 5633 5632 5631 5630 5628 5626 5626 5624 5623 5621 5620 5618 5616 5614 5612 5610 5608 5606
5521 5531 5540 5548 5556 5565 5575 5578 5581 5584 5588 5594 5598 5601 5604 5607 5610 5612 5615 5617 5619 5620 5621 5622 5623 5623 5623 5623 5623 5622 5620 5618 5616 5614 5612 5612 5609 5607 5605 5602 5599 5597 5594 5591